Time,TemperatureF,DewpointF,PressureIn,WindDirection,WindDirectionDegrees,WindSpeedMPH,WindSpeedGustMPH,Humidity,HourlyPrecipIn,Conditions,Clouds,dailyrainin,SoftwareType,DateUTC
2013-01-08 00:01:00,16.2,11.6,29.33,SW,225,0.0,0.0,82,0.00,,,0.00,WUHU21623XXSP,2013-01-08 06:01:00,
2013-01-08 00:10:00,16.2,11.6,29.33,SW,225,0.0,0.0,82,0.00,,,0.00,WUHU21623XXSP,2013-01-08 06:10:00,
2013-01-08 00:15:00,16.0,11.4,29.32,SW,225,0.0,0.0,82,0.00,,,0.00,WUHU21623XXSP,2013-01-08 06:15:00,
2013-01-08 00:20:00,15.6,11.1,29.33,SW,225,0.0,0.0,82,0.00,,,0.00,WUHU21623XXSP,2013-01-08 06:20:00,
2013-01-08 00:25:00,15.6,11.1,29.33,SW,225,0.0,0.0,82,0.00,,,0.00,WUHU21623XXSP,2013-01-08 06:25:00,
2013-01-08 00:30:00,15.6,11.1,29.33,SW,225,0.0,0.0,82,0.00,,,0.00,WUHU21623XXSP,2013-01-08 06:30:00,
2013-01-08 00:35:00,15.6,11.1,29.33,SW,225,0.0,0.0,82,0.00,,,0.00,WUHU21623XXSP,2013-01-08 06:35:00,
2013-01-08 00:40:00,15.4,10.9,29.33,SW,225,0.0,0.0,82,0.00,,,0.00,WUHU21623XXSP,2013-01-08 06:40:00,
2013-01-08 00:45:00,15.1,10.3,29.33,SW,225,0.0,0.0,81,0.00,,,0.00,WUHU21623XXSP,2013-01-08 06:45:00,
2013-01-08 00:50:00,14.9,10.1,29.33,SW,225,0.0,0.0,81,0.00,,,0.00,WUHU21623XXSP,2013-01-08 06:50:00,
2013-01-08 00:55:00,14.9,10.1,29.33,SW,225,0.0,0.0,81,0.00,,,0.00,WUHU21623XXSP,2013-01-08 06:55:00,
2013-01-08 01:00:00,15.1,10.3,29.33,SW,225,0.0,0.0,81,0.00,,,0.00,WUHU21623XXSP,2013-01-08 07:00:00,
2013-01-08 01:05:00,15.1,10.5,29.33,SW,225,0.0,0.0,82,0.00,,,0.00,WUHU21623XXSP,2013-01-08 07:05:00,
2013-01-08 01:10:00,15.3,10.5,29.33,SW,225,0.0,0.0,81,0.00,,,0.00,WUHU21623XXSP,2013-01-08 07:10:00,
2013-01-08 01:15:00,15.4,10.7,29.34,SW,225,0.0,0.0,81,0.00,,,0.00,WUHU21623XXSP,2013-01-08 07:15:00,
2013-01-08 01:20:00,15.4,10.7,29.34,SW,225,0.0,0.0,81,0.00,,,0.00,WUHU21623XXSP,2013-01-08 07:20:00,
2013-01-08 01:25:00,15.1,10.5,29.34,SW,225,0.0,0.0,82,0.00,,,0.00,WUHU21623XXSP,2013-01-08 07:25:00,
2013-01-08 01:30:00,15.1,10.5,29.34,SW,225,0.0,0.0,82,0.00,,,0.00,WUHU21623XXSP,2013-01-08 07:30:00,
2013-01-08 01:35:00,15.1,10.5,29.34,SW,225,0.0,0.0,82,0.00,,,0.00,WUHU21623XXSP,2013-01-08 07:35:00,
2013-01-08 01:40:00,15.1,10.5,29.34,SW,225,0.0,0.0,82,0.00,,,0.00,WUHU21623XXSP,2013-01-08 07:40:00,
2013-01-08 01:45:00,15.1,10.5,29.34,SW,225,0.0,0.0,82,0.00,,,0.00,WUHU21623XXSP,2013-01-08 07:45:00,
2013-01-08 01:50:00,14.9,10.1,29.34,SW,225,0.0,0.0,81,0.00,,,0.00,WUHU21623XXSP,2013-01-08 07:50:00,
2013-01-08 01:55:00,14.7,9.9,29.34,SW,225,0.0,0.0,81,0.00,,,0.00,WUHU21623XXSP,2013-01-08 07:55:00,
2013-01-08 02:00:00,14.7,10.2,29.34,SW,225,0.0,0.0,82,0.00,,,0.00,WUHU21623XXSP,2013-01-08 08:00:00,
2013-01-08 02:05:00,14.7,10.2,29.34,SW,225,0.0,0.0,82,0.00,,,0.00,WUHU21623XXSP,2013-01-08 08:05:00,
2013-01-08 02:10:00,14.7,9.9,29.34,SW,225,0.0,0.0,81,0.00,,,0.00,WUHU21623XXSP,2013-01-08 08:10:00,
2013-01-08 02:16:00,14.7,9.9,29.34,SW,225,0.0,0.0,81,0.00,,,0.00,WUHU21623XXSP,2013-01-08 08:16:00,
2013-01-08 02:21:00,14.7,10.2,29.34,SW,225,0.0,0.0,82,0.00,,,0.00,WUHU21623XXSP,2013-01-08 08:21:00,
2013-01-08 02:25:00,14.7,10.2,29.34,SW,225,0.0,0.0,82,0.00,,,0.00,WUHU21623XXSP,2013-01-08 08:25:00,
2013-01-08 02:30:00,14.7,10.2,29.34,SW,225,0.0,0.0,82,0.00,,,0.00,WUHU21623XXSP,2013-01-08 08:30:00,
2013-01-08 02:36:00,14.5,10.0,29.34,SW,225,0.0,0.0,82,0.00,,,0.00,WUHU21623XXSP,2013-01-08 08:36:00,
2013-01-08 02:41:00,14.5,10.0,29.34,SW,225,0.0,0.0,82,0.00,,,0.00,WUHU21623XXSP,2013-01-08 08:41:00,
2013-01-08 02:46:00,14.5,10.2,29.34,SW,225,0.0,0.0,82,0.00,,,0.00,WUHU21623XXSP,2013-01-08 08:46:00,
2013-01-08 02:51:00,14.7,10.2,29.33,SW,225,0.0,0.0,82,0.00,,,0.00,WUHU21623XXSP,2013-01-08 08:51:00,
2013-01-08 02:56:00,14.9,10.4,29.33,SW,225,0.0,0.0,82,0.00,,,0.00,WUHU21623XXSP,2013-01-08 08:56:00,
2013-01-08 03:01:00,15.1,10.5,29.33,WNW,292,0.0,0.0,82,0.00,,,0.00,WUHU21623XXSP,2013-01-08 09:01:00,
2013-01-08 03:06:00,14.7,10.2,29.34,WNW,292,0.0,0.0,82,0.00,,,0.00,WUHU21623XXSP,2013-01-08 09:06:00,
2013-01-08 03:11:00,14.4,9.8,29.33,WNW,292,0.0,0.0,82,0.00,,,0.00,WUHU21623XXSP,2013-01-08 09:11:00,
2013-01-08 03:16:00,14.2,9.7,29.33,WNW,292,0.0,0.0,81,0.00,,,0.00,WUHU21623XXSP,2013-01-08 09:16:00,
2013-01-08 03:21:00,13.8,9.1,29.33,WNW,292,0.0,0.0,81,0.00,,,0.00,WUHU21623XXSP,2013-01-08 09:21:00,
2013-01-08 03:26:00,13.8,9.3,29.33,WNW,292,0.0,0.0,82,0.00,,,0.00,WUHU21623XXSP,2013-01-08 09:26:00,
2013-01-08 03:31:00,13.6,8.9,29.33,WNW,292,0.0,0.0,81,0.00,,,0.00,WUHU21623XXSP,2013-01-08 09:31:00,
2013-01-08 03:36:00,13.3,8.5,29.32,WNW,292,0.0,0.0,81,0.00,,,0.00,WUHU21623XXSP,2013-01-08 09:36:00,
2013-01-08 03:41:00,13.3,8.5,29.32,WNW,292,0.0,0.0,81,0.00,,,0.00,WUHU21623XXSP,2013-01-08 09:41:00,
2013-01-08 03:46:00,13.3,8.5,29.32,WNW,292,0.0,0.0,81,0.00,,,0.00,WUHU21623XXSP,2013-01-08 09:46:00,
2013-01-08 03:51:00,13.3,8.5,29.32,WNW,292,0.0,0.0,81,0.00,,,0.00,WUHU21623XXSP,2013-01-08 09:51:00,
2013-01-08 03:56:00,13.3,8.5,29.32,WNW,292,0.0,0.0,81,0.00,,,0.00,WUHU21623XXSP,2013-01-08 09:56:00,
2013-01-08 04:01:00,13.3,8.5,29.32,WNW,292,0.0,0.0,81,0.00,,,0.00,WUHU21623XXSP,2013-01-08 10:01:00,
2013-01-08 04:06:00,12.9,8.1,29.32,WNW,292,0.0,0.0,81,0.00,,,0.00,WUHU21623XXSP,2013-01-08 10:06:00,
2013-01-08 04:11:00,12.9,8.1,29.32,WNW,292,0.0,0.0,81,0.00,,,0.00,WUHU21623XXSP,2013-01-08 10:11:00,
2013-01-08 04:16:00,12.7,8.0,29.32,WNW,292,0.0,0.0,81,0.00,,,0.00,WUHU21623XXSP,2013-01-08 10:16:00,
2013-01-08 04:21:00,12.6,7.8,29.32,WNW,292,0.0,0.0,81,0.00,,,0.00,WUHU21623XXSP,2013-01-08 10:21:00,
2013-01-08 04:26:00,12.2,7.2,29.32,WNW,292,0.0,0.0,80,0.00,,,0.00,WUHU21623XXSP,2013-01-08 10:26:00,
2013-01-08 04:31:00,12.0,7.3,29.31,WNW,292,0.0,0.0,81,0.00,,,0.00,WUHU21623XXSP,2013-01-08 10:31:00,
2013-01-08 04:36:00,11.5,6.7,29.32,WNW,292,0.0,0.0,81,0.00,,,0.00,WUHU21623XXSP,2013-01-08 10:36:00,
2013-01-08 04:41:00,11.1,6.3,29.31,WNW,292,0.0,0.0,81,0.00,,,0.00,WUHU21623XXSP,2013-01-08 10:41:00,
2013-01-08 04:46:00,11.1,6.3,29.31,WNW,292,0.0,0.0,81,0.00,,,0.00,WUHU21623XXSP,2013-01-08 10:46:00,
2013-01-08 04:51:00,11.5,6.7,29.31,WNW,292,0.0,0.0,81,0.00,,,0.00,WUHU21623XXSP,2013-01-08 10:51:00,
2013-01-08 04:56:00,11.5,6.7,29.31,WNW,292,0.0,0.0,81,0.00,,,0.00,WUHU21623XXSP,2013-01-08 10:56:00,
2013-01-08 05:01:00,11.5,6.7,29.31,WNW,292,0.0,0.0,81,0.00,,,0.00,WUHU21623XXSP,2013-01-08 11:01:00,
2013-01-08 05:06:00,11.7,6.9,29.31,WNW,292,0.0,0.0,81,0.00,,,0.00,WUHU21623XXSP,2013-01-08 11:06:00,
2013-01-08 05:11:00,11.8,7.1,29.31,WNW,292,0.0,0.0,81,0.00,,,0.00,WUHU21623XXSP,2013-01-08 11:11:00,
2013-01-08 05:16:00,11.8,7.1,29.31,WNW,292,0.0,0.0,81,0.00,,,0.00,WUHU21623XXSP,2013-01-08 11:16:00,
2013-01-08 05:22:00,12.0,7.3,29.30,WNW,292,0.0,0.0,81,0.00,,,0.00,WUHU21623XXSP,2013-01-08 11:22:00,
2013-01-08 05:27:00,12.0,7.3,29.30,WNW,292,0.0,0.0,81,0.00,,,0.00,WUHU21623XXSP,2013-01-08 11:27:00,
2013-01-08 05:32:00,11.7,6.9,29.30,WNW,292,0.0,0.0,81,0.00,,,0.00,WUHU21623XXSP,2013-01-08 11:32:00,
2013-01-08 05:37:00,11.5,6.7,29.30,WNW,292,0.0,0.0,81,0.00,,,0.00,WUHU21623XXSP,2013-01-08 11:37:00,
2013-01-08 05:41:00,11.5,6.7,29.31,WNW,292,0.0,0.0,81,0.00,,,0.00,WUHU21623XXSP,2013-01-08 11:41:00,
2013-01-08 05:47:00,11.8,7.1,29.31,WNW,292,0.0,0.0,81,0.00,,,0.00,WUHU21623XXSP,2013-01-08 11:47:00,
2013-01-08 05:52:00,12.0,7.3,29.30,WNW,292,0.0,0.0,81,0.00,,,0.00,WUHU21623XXSP,2013-01-08 11:52:00,
2013-01-08 05:57:00,12.4,7.6,29.30,WNW,292,0.0,0.0,82,0.00,,,0.00,WUHU21623XXSP,2013-01-08 11:57:00,
2013-01-08 06:02:00,13.6,9.1,29.30,WNW,292,0.0,0.0,82,0.00,,,0.00,WUHU21623XXSP,2013-01-08 12:02:00,
2013-01-08 06:07:00,14.2,9.7,29.30,WNW,292,0.0,0.0,82,0.00,,,0.00,WUHU21623XXSP,2013-01-08 12:07:00,
2013-01-08 06:12:00,14.5,10.0,29.31,WNW,292,0.0,0.0,82,0.00,,,0.00,WUHU21623XXSP,2013-01-08 12:12:00,
2013-01-08 06:17:00,14.7,10.2,29.30,WNW,292,0.0,0.0,82,0.00,,,0.00,WUHU21623XXSP,2013-01-08 12:17:00,
2013-01-08 06:22:00,14.7,10.2,29.30,WNW,292,0.0,0.0,82,0.00,,,0.00,WUHU21623XXSP,2013-01-08 12:22:00,
2013-01-08 06:27:00,14.7,10.2,29.30,WNW,292,0.0,0.0,82,0.00,,,0.00,WUHU21623XXSP,2013-01-08 12:27:00,
2013-01-08 06:32:00,14.7,10.2,29.31,WNW,292,0.0,0.0,82,0.00,,,0.00,WUHU21623XXSP,2013-01-08 12:32:00,
2013-01-08 06:37:00,14.7,10.2,29.31,WNW,292,0.0,0.0,82,0.00,,,0.00,WUHU21623XXSP,2013-01-08 12:37:00,
2013-01-08 06:42:00,14.7,10.2,29.31,WNW,292,0.0,0.0,82,0.00,,,0.00,WUHU21623XXSP,2013-01-08 12:42:00,
2013-01-08 06:47:00,14.7,10.2,29.31,WNW,292,0.0,0.0,82,0.00,,,0.00,WUHU21623XXSP,2013-01-08 12:47:00,
2013-01-08 06:52:00,15.1,10.5,29.31,WNW,292,0.0,0.0,82,0.00,,,0.00,WUHU21623XXSP,2013-01-08 12:52:00,
2013-01-08 06:57:00,15.4,10.9,29.30,WNW,292,0.0,0.0,82,0.00,,,0.00,WUHU21623XXSP,2013-01-08 12:57:00,
2013-01-08 07:03:00,15.6,11.1,29.31,WNW,292,0.0,0.0,83,0.00,,,0.00,WUHU21623XXSP,2013-01-08 13:03:00,
2013-01-08 07:08:00,16.0,11.7,29.31,WNW,292,0.0,0.0,83,0.00,,,0.00,WUHU21623XXSP,2013-01-08 13:08:00,
2013-01-08 07:13:00,16.0,11.7,29.30,WNW,292,0.0,0.0,83,0.00,,,0.00,WUHU21623XXSP,2013-01-08 13:13:00,
2013-01-08 07:18:00,15.8,11.3,29.30,WNW,292,0.0,0.0,82,0.00,,,0.00,WUHU21623XXSP,2013-01-08 13:18:00,
2013-01-08 07:23:00,15.6,11.1,29.30,WNW,292,0.0,0.0,82,0.00,,,0.00,WUHU21623XXSP,2013-01-08 13:23:00,
2013-01-08 07:28:00,15.6,11.1,29.30,WNW,292,0.0,0.0,82,0.00,,,0.00,WUHU21623XXSP,2013-01-08 13:28:00,
2013-01-08 07:33:00,15.6,11.1,29.30,WNW,292,0.0,0.0,82,0.00,,,0.00,WUHU21623XXSP,2013-01-08 13:33:00,
2013-01-08 07:38:00,15.4,10.9,29.30,WNW,292,0.0,0.0,82,0.00,,,0.00,WUHU21623XXSP,2013-01-08 13:38:00,
2013-01-08 07:43:00,15.4,10.9,29.30,WNW,292,0.0,0.0,82,0.00,,,0.00,WUHU21623XXSP,2013-01-08 13:43:00,
2013-01-08 07:48:00,15.4,10.9,29.30,WNW,292,0.0,0.0,82,0.00,,,0.00,WUHU21623XXSP,2013-01-08 13:48:00,
2013-01-08 07:53:00,15.3,10.7,29.30,WNW,292,0.0,0.0,82,0.00,,,0.00,WUHU21623XXSP,2013-01-08 13:53:00,
2013-01-08 07:58:00,14.9,10.4,29.30,WNW,292,0.0,0.0,82,0.00,,,0.00,WUHU21623XXSP,2013-01-08 13:58:00,
2013-01-08 08:03:00,14.7,10.2,29.30,WNW,292,0.0,0.0,82,0.00,,,0.00,WUHU21623XXSP,2013-01-08 14:03:00,
2013-01-08 08:08:00,14.7,10.2,29.30,WNW,292,0.0,0.0,82,0.00,,,0.00,WUHU21623XXSP,2013-01-08 14:08:00,
2013-01-08 08:13:00,14.7,10.2,29.30,WNW,292,0.0,0.0,82,0.00,,,0.00,WUHU21623XXSP,2013-01-08 14:13:00,
2013-01-08 08:18:00,14.7,10.2,29.30,WNW,292,0.0,0.0,82,0.00,,,0.00,WUHU21623XXSP,2013-01-08 14:18:00,
2013-01-08 08:23:00,14.5,10.0,29.30,WNW,292,0.0,0.0,82,0.00,,,0.00,WUHU21623XXSP,2013-01-08 14:23:00,
2013-01-08 08:28:00,14.9,10.2,29.30,WNW,292,0.0,0.0,82,0.00,,,0.00,WUHU21623XXSP,2013-01-08 14:28:00,
2013-01-08 08:33:00,15.1,10.5,29.29,WNW,292,0.0,0.0,82,0.00,,,0.00,WUHU21623XXSP,2013-01-08 14:33:00,
2013-01-08 08:38:00,15.4,10.9,29.30,WNW,292,0.0,0.0,82,0.00,,,0.00,WUHU21623XXSP,2013-01-08 14:38:00,
2013-01-08 08:43:00,15.8,11.5,29.30,WNW,292,0.0,0.0,83,0.00,,,0.00,WUHU21623XXSP,2013-01-08 14:43:00,
2013-01-08 08:48:00,16.0,11.7,29.30,WNW,292,0.0,0.0,83,0.00,,,0.00,WUHU21623XXSP,2013-01-08 14:48:00,
2013-01-08 08:53:00,16.3,12.0,29.30,WNW,292,0.0,0.0,83,0.00,,,0.00,WUHU21623XXSP,2013-01-08 14:53:00,
2013-01-08 08:58:00,16.7,12.3,29.30,WNW,292,0.0,0.0,83,0.00,,,0.00,WUHU21623XXSP,2013-01-08 14:58:00,
2013-01-08 09:03:00,17.1,12.7,29.30,WNW,292,0.0,0.0,83,0.00,,,0.00,WUHU21623XXSP,2013-01-08 15:03:00,
2013-01-08 09:08:00,18.7,14.3,29.29,WNW,292,0.0,0.0,83,0.00,,,0.00,WUHU21623XXSP,2013-01-08 15:08:00,
2013-01-08 09:13:00,19.2,15.1,29.29,WNW,292,0.0,0.0,84,0.00,,,0.00,WUHU21623XXSP,2013-01-08 15:13:00,
2013-01-08 09:18:00,20.1,15.8,29.29,WNW,292,0.0,0.0,84,0.00,,,0.00,WUHU21623XXSP,2013-01-08 15:18:00,
2013-01-08 09:23:00,20.8,16.3,29.28,WNW,292,0.0,0.0,84,0.00,,,0.00,WUHU21623XXSP,2013-01-08 15:23:00,
2013-01-08 09:28:00,21.0,16.7,29.28,WNW,292,0.0,0.0,84,0.00,,,0.00,WUHU21623XXSP,2013-01-08 15:28:00,
2013-01-08 09:33:00,21.9,17.8,29.28,WNW,292,0.0,0.0,84,0.00,,,0.00,WUHU21623XXSP,2013-01-08 15:33:00,
2013-01-08 09:38:00,23.0,19.1,29.28,WNW,292,0.0,0.0,85,0.00,,,0.00,WUHU21623XXSP,2013-01-08 15:38:00,
2013-01-08 09:44:00,23.9,20.0,29.28,WNW,292,0.0,0.0,85,0.00,,,0.00,WUHU21623XXSP,2013-01-08 15:44:00,
2013-01-08 09:49:00,25.0,20.6,29.28,WNW,292,0.0,0.0,85,0.00,,,0.00,WUHU21623XXSP,2013-01-08 15:49:00,
2013-01-08 09:54:00,25.9,22.0,29.28,WNW,292,0.0,0.0,85,0.00,,,0.00,WUHU21623XXSP,2013-01-08 15:54:00,
2013-01-08 09:59:00,27.0,22.5,29.28,WNW,292,0.0,0.0,85,0.00,,,0.00,WUHU21623XXSP,2013-01-08 15:59:00,
2013-01-08 10:04:00,27.7,23.4,29.28,WNW,292,0.0,0.0,84,0.00,,,0.00,WUHU21623XXSP,2013-01-08 16:04:00,
2013-01-08 10:09:00,27.3,23.1,29.27,WNW,292,0.0,0.0,84,0.00,,,0.00,WUHU21623XXSP,2013-01-08 16:09:00,
2013-01-08 10:14:00,27.3,23.1,29.28,SSE,157,0.0,0.0,84,0.00,,,0.00,WUHU21623XXSP,2013-01-08 16:14:00,
2013-01-08 10:19:00,27.5,23.0,29.27,SE,135,0.0,0.0,83,0.00,,,0.00,WUHU21623XXSP,2013-01-08 16:19:00,
2013-01-08 10:24:00,28.2,24.0,29.27,SE,135,0.0,0.0,84,0.00,,,0.00,WUHU21623XXSP,2013-01-08 16:24:00,
2013-01-08 10:29:00,28.4,23.7,29.26,SE,135,0.0,0.0,83,0.00,,,0.00,WUHU21623XXSP,2013-01-08 16:29:00,
2013-01-08 10:34:00,28.2,23.1,29.25,SE,135,0.0,0.0,81,0.00,,,0.00,WUHU21623XXSP,2013-01-08 16:34:00,
2013-01-08 10:39:00,28.6,23.5,29.25,ESE,112,0.0,0.0,81,0.00,,,0.00,WUHU21623XXSP,2013-01-08 16:39:00,
2013-01-08 10:44:00,29.3,24.2,29.25,SE,135,0.0,0.0,81,0.00,,,0.00,WUHU21623XXSP,2013-01-08 16:44:00,
2013-01-08 10:49:00,30.6,24.9,29.25,SE,135,0.0,0.0,81,0.00,,,0.00,WUHU21623XXSP,2013-01-08 16:49:00,
2013-01-08 10:54:00,31.8,26.2,29.25,ESE,112,0.0,0.0,81,0.00,,,0.00,WUHU21623XXSP,2013-01-08 16:54:00,
2013-01-08 10:59:00,33.3,27.4,29.24,ESE,112,0.0,0.0,79,0.00,,,0.00,WUHU21623XXSP,2013-01-08 16:59:00,
2013-01-08 11:04:00,34.3,28.4,29.23,East,90,0.0,0.0,79,0.00,,,0.00,WUHU21623XXSP,2013-01-08 17:04:00,
2013-01-08 11:09:00,35.8,29.6,29.24,ESE,112,0.0,0.0,78,0.00,,,0.00,WUHU21623XXSP,2013-01-08 17:09:00,
2013-01-08 11:14:00,37.9,31.0,29.24,SSE,157,0.0,0.0,76,0.00,,,0.00,WUHU21623XXSP,2013-01-08 17:14:00,
2013-01-08 11:19:00,39.6,31.6,29.23,South,180,0.0,0.0,73,0.00,,,0.00,WUHU21623XXSP,2013-01-08 17:19:00,
2013-01-08 11:24:00,40.1,30.7,29.23,South,180,0.0,0.0,69,0.00,,,0.00,WUHU21623XXSP,2013-01-08 17:24:00,
2013-01-08 11:29:00,40.3,30.1,29.23,South,180,1.6,1.6,67,0.00,,,0.00,WUHU21623XXSP,2013-01-08 17:29:00,
2013-01-08 11:35:00,41.4,31.2,29.22,South,180,0.0,1.6,67,0.00,,,0.00,WUHU21623XXSP,2013-01-08 17:35:00,
2013-01-08 11:40:00,42.4,31.9,29.21,SSE,157,0.0,0.0,66,0.00,,,0.00,WUHU21623XXSP,2013-01-08 17:40:00,
2013-01-08 11:45:00,45.1,33.4,29.21,South,180,0.0,0.0,64,0.00,,,0.00,WUHU21623XXSP,2013-01-08 17:45:00,
2013-01-08 11:50:00,46.0,33.3,29.21,SE,135,0.0,0.0,61,0.00,,,0.00,WUHU21623XXSP,2013-01-08 17:50:00,
2013-01-08 11:55:00,45.0,31.5,29.20,South,180,0.0,0.0,59,0.00,,,0.00,WUHU21623XXSP,2013-01-08 17:55:00,
2013-01-08 12:00:00,43.0,30.1,29.21,South,180,0.0,0.0,60,0.00,,,0.00,WUHU21623XXSP,2013-01-08 18:00:00,
2013-01-08 12:05:00,41.7,28.9,29.21,South,180,0.0,0.0,60,0.00,,,0.00,WUHU21623XXSP,2013-01-08 18:05:00,
2013-01-08 12:10:00,39.9,27.9,29.20,South,180,0.0,0.0,62,0.00,,,0.00,WUHU21623XXSP,2013-01-08 18:10:00,
2013-01-08 12:15:00,39.4,27.7,29.20,SSE,157,0.0,0.0,63,0.00,,,0.00,WUHU21623XXSP,2013-01-08 18:15:00,
2013-01-08 12:20:00,39.4,28.1,29.20,SSE,157,0.0,0.0,64,0.00,,,0.00,WUHU21623XXSP,2013-01-08 18:20:00,
2013-01-08 12:25:00,39.6,28.3,29.19,SSE,157,0.0,0.0,64,0.00,,,0.00,WUHU21623XXSP,2013-01-08 18:25:00,
2013-01-08 12:30:00,39.9,28.7,29.19,SSE,157,0.0,0.0,64,0.00,,,0.00,WUHU21623XXSP,2013-01-08 18:30:00,
2013-01-08 12:35:00,39.7,28.5,29.19,South,180,0.0,0.0,64,0.00,,,0.00,WUHU21623XXSP,2013-01-08 18:35:00,
2013-01-08 12:40:00,39.0,27.8,29.18,South,180,0.0,1.8,64,0.00,,,0.00,WUHU21623XXSP,2013-01-08 18:40:00,
2013-01-08 12:45:00,38.3,27.1,29.18,South,180,0.0,1.8,64,0.00,,,0.00,WUHU21623XXSP,2013-01-08 18:45:00,
2013-01-08 12:50:00,37.9,27.2,29.17,South,180,0.0,1.8,65,0.00,,,0.00,WUHU21623XXSP,2013-01-08 18:50:00,
2013-01-08 12:55:00,37.8,27.0,29.17,SSW,202,0.0,2.0,65,0.00,,,0.00,WUHU21623XXSP,2013-01-08 18:55:00,
2013-01-08 13:00:00,37.6,27.2,29.16,SSE,157,0.0,2.0,66,0.00,,,0.00,WUHU21623XXSP,2013-01-08 19:00:00,
2013-01-08 13:05:00,37.4,26.7,29.16,South,180,0.0,0.0,65,0.00,,,0.00,WUHU21623XXSP,2013-01-08 19:05:00,
2013-01-08 13:10:00,37.4,27.1,29.16,South,180,0.0,0.0,66,0.02,,,0.00,WUHU21623XXSP,2013-01-08 19:10:00,
2013-01-08 13:15:00,37.2,26.9,29.17,SSW,202,4.5,4.5,66,0.02,,,0.02,WUHU21623XXSP,2013-01-08 19:15:00,
2013-01-08 13:20:00,37.2,26.9,29.17,SSW,202,0.0,4.5,66,0.02,,,0.02,WUHU21623XXSP,2013-01-08 19:20:00,
2013-01-08 13:25:00,37.4,27.4,29.17,SSW,202,0.0,1.3,67,0.02,,,0.02,WUHU21623XXSP,2013-01-08 19:25:00,
2013-01-08 13:30:00,37.6,27.2,29.16,SSW,202,0.0,1.3,66,0.02,,,0.02,WUHU21623XXSP,2013-01-08 19:30:00,
2013-01-08 13:35:00,37.9,27.8,29.16,SSW,202,0.0,0.0,67,0.02,,,0.02,WUHU21623XXSP,2013-01-08 19:35:00,
2013-01-08 13:41:00,38.5,28.0,29.17,SW,225,0.0,0.0,66,0.02,,,0.02,WUHU21623XXSP,2013-01-08 19:41:00,
2013-01-08 13:46:00,38.8,28.0,29.17,SSW,202,0.0,0.0,66,0.02,,,0.02,WUHU21623XXSP,2013-01-08 19:46:00,
2013-01-08 13:51:00,38.8,28.0,29.16,SSW,202,3.6,8.5,65,0.02,,,0.02,WUHU21623XXSP,2013-01-08 19:51:00,
2013-01-08 13:56:00,38.3,27.5,29.16,SW,225,6.5,8.5,65,0.02,,,0.02,WUHU21623XXSP,2013-01-08 19:56:00,
2013-01-08 14:01:00,37.9,27.6,29.16,SW,225,0.0,7.6,66,0.02,,,0.02,WUHU21623XXSP,2013-01-08 20:01:00,
2013-01-08 14:06:00,37.8,27.4,29.16,SSW,202,4.0,8.9,66,0.02,,,0.02,WUHU21623XXSP,2013-01-08 20:06:00,
2013-01-08 14:11:00,37.8,27.4,29.16,SSW,202,3.6,8.9,66,0.00,,,0.02,WUHU21623XXSP,2013-01-08 20:11:00,
2013-01-08 14:16:00,37.9,27.6,29.16,SSW,202,8.3,8.9,66,0.00,,,0.02,WUHU21623XXSP,2013-01-08 20:16:00,
2013-01-08 14:21:00,37.4,27.1,29.16,SSW,202,8.5,8.9,66,0.00,,,0.02,WUHU21623XXSP,2013-01-08 20:21:00,
2013-01-08 14:26:00,37.0,27.1,29.15,SSW,202,3.6,8.5,67,0.00,,,0.02,WUHU21623XXSP,2013-01-08 20:26:00,
2013-01-08 14:31:00,36.9,27.3,29.15,SSW,202,9.2,9.6,68,0.00,,,0.02,WUHU21623XXSP,2013-01-08 20:31:00,
2013-01-08 14:36:00,36.5,27.1,29.15,SSW,202,6.7,9.6,68,0.00,,,0.02,WUHU21623XXSP,2013-01-08 20:36:00,
2013-01-08 14:41:00,36.1,26.6,29.15,SSW,202,5.4,6.7,68,0.00,,,0.02,WUHU21623XXSP,2013-01-08 20:41:00,
2013-01-08 14:46:00,36.1,26.9,29.15,SSW,202,6.9,6.9,69,0.00,,,0.02,WUHU21623XXSP,2013-01-08 20:46:00,
2013-01-08 14:51:00,36.1,27.3,29.14,SSW,202,8.7,8.7,70,0.00,,,0.02,WUHU21623XXSP,2013-01-08 20:51:00,
2013-01-08 14:56:00,36.3,27.3,29.16,SSW,202,11.4,11.4,70,0.00,,,0.02,WUHU21623XXSP,2013-01-08 20:56:00,
2013-01-08 15:01:00,36.3,27.5,29.15,SSW,202,7.8,11.4,70,0.00,,,0.02,WUHU21623XXSP,2013-01-08 21:01:00,
2013-01-08 15:06:00,36.3,27.5,29.14,SSW,202,10.5,10.5,70,0.00,,,0.02,WUHU21623XXSP,2013-01-08 21:06:00,
2013-01-08 15:11:00,36.0,27.3,29.14,SSW,202,7.4,10.5,70,0.00,,,0.02,WUHU21623XXSP,2013-01-08 21:11:00,
2013-01-08 15:17:00,35.8,27.3,29.14,South,180,5.8,7.4,71,0.00,,,0.02,WUHU21623XXSP,2013-01-08 21:17:00,
2013-01-08 15:22:00,35.8,27.3,29.15,SSW,202,7.8,7.8,71,0.00,,,0.02,WUHU21623XXSP,2013-01-08 21:22:00,
2013-01-08 15:27:00,35.4,27.2,29.15,South,180,6.3,7.8,72,0.00,,,0.02,WUHU21623XXSP,2013-01-08 21:27:00,
2013-01-08 15:32:00,35.2,27.1,29.14,South,180,7.4,7.8,72,0.00,,,0.02,WUHU21623XXSP,2013-01-08 21:32:00,
2013-01-08 15:37:00,35.2,27.1,29.15,South,180,5.6,7.6,72,0.00,,,0.02,WUHU21623XXSP,2013-01-08 21:37:00,
2013-01-08 15:42:00,34.9,27.0,29.15,SSW,202,4.3,7.6,73,0.00,,,0.02,WUHU21623XXSP,2013-01-08 21:42:00,
2013-01-08 15:47:00,34.7,26.9,29.15,SSW,202,6.5,6.5,73,0.00,,,0.02,WUHU21623XXSP,2013-01-08 21:47:00,
2013-01-08 15:52:00,34.9,27.0,29.15,SSW,202,8.9,8.9,73,0.00,,,0.02,WUHU21623XXSP,2013-01-08 21:52:00,
2013-01-08 15:57:00,34.9,27.0,29.15,SSW,202,6.9,8.9,73,0.00,,,0.02,WUHU21623XXSP,2013-01-08 21:57:00,
2013-01-08 16:02:00,34.9,27.0,29.15,SSW,202,5.4,7.6,73,0.00,,,0.02,WUHU21623XXSP,2013-01-08 22:02:00,
2013-01-08 16:07:00,34.9,27.4,29.14,SSW,202,8.3,8.3,74,0.00,,,0.02,WUHU21623XXSP,2013-01-08 22:07:00,
2013-01-08 16:12:00,34.5,27.0,29.14,SSW,202,4.9,9.2,74,0.00,,,0.02,WUHU21623XXSP,2013-01-08 22:12:00,
2013-01-08 16:17:00,34.3,26.8,29.14,SW,225,4.5,9.2,74,0.00,,,0.02,WUHU21623XXSP,2013-01-08 22:17:00,
2013-01-08 16:22:00,34.3,27.1,29.14,SSW,202,7.6,7.6,75,0.00,,,0.02,WUHU21623XXSP,2013-01-08 22:22:00,
2013-01-08 16:27:00,34.3,27.1,29.14,SSW,202,5.1,7.6,75,0.00,,,0.02,WUHU21623XXSP,2013-01-08 22:27:00,
2013-01-08 16:32:00,34.2,27.0,29.14,SSW,202,6.5,7.2,75,0.00,,,0.02,WUHU21623XXSP,2013-01-08 22:32:00,
2013-01-08 16:37:00,33.6,26.9,29.13,SSW,202,6.5,6.5,76,0.00,,,0.02,WUHU21623XXSP,2013-01-08 22:37:00,
2013-01-08 16:42:00,33.4,26.6,29.13,SSW,202,5.6,7.4,76,0.00,,,0.02,WUHU21623XXSP,2013-01-08 22:42:00,
2013-01-08 16:47:00,33.1,26.3,29.14,SW,225,3.1,7.4,76,0.00,,,0.02,WUHU21623XXSP,2013-01-08 22:47:00,
2013-01-08 16:52:00,32.9,26.4,29.14,SSW,202,8.1,8.1,77,0.00,,,0.02,WUHU21623XXSP,2013-01-08 22:52:00,
2013-01-08 16:57:00,32.7,26.3,29.14,West,270,7.2,8.1,77,0.00,,,0.02,WUHU21623XXSP,2013-01-08 22:57:00,
2013-01-08 17:02:00,32.7,26.3,29.14,SW,225,5.1,7.2,77,0.00,,,0.02,WUHU21623XXSP,2013-01-08 23:02:00,
2013-01-08 17:07:00,32.7,26.3,29.14,SW,225,6.9,6.9,77,0.00,,,0.02,WUHU21623XXSP,2013-01-08 23:07:00,
2013-01-08 17:12:00,32.9,26.8,29.14,SW,225,6.5,6.9,78,0.00,,,0.02,WUHU21623XXSP,2013-01-08 23:12:00,
2013-01-08 17:17:00,33.1,26.8,29.14,SW,225,6.5,6.9,78,0.00,,,0.02,WUHU21623XXSP,2013-01-08 23:17:00,
2013-01-08 17:22:00,33.3,27.1,29.14,SW,225,7.4,7.4,78,0.00,,,0.02,WUHU21623XXSP,2013-01-08 23:22:00,
2013-01-08 17:27:00,33.4,27.2,29.13,SW,225,6.9,7.6,78,0.00,,,0.02,WUHU21623XXSP,2013-01-08 23:27:00,
2013-01-08 17:32:00,33.6,27.4,29.13,SW,225,7.2,7.6,78,0.00,,,0.02,WUHU21623XXSP,2013-01-08 23:32:00,
2013-01-08 17:37:00,33.6,27.4,29.13,SW,225,8.3,8.3,78,0.00,,,0.02,WUHU21623XXSP,2013-01-08 23:37:00,
2013-01-08 17:42:00,34.0,27.8,29.14,WSW,247,7.6,8.3,78,0.00,,,0.02,WUHU21623XXSP,2013-01-08 23:42:00,
2013-01-08 17:47:00,34.0,27.8,29.14,SW,225,8.1,8.1,78,0.00,,,0.02,WUHU21623XXSP,2013-01-08 23:47:00,
2013-01-08 17:53:00,34.2,27.9,29.14,WSW,247,7.2,8.1,78,0.00,,,0.02,WUHU21623XXSP,2013-01-08 23:53:00,
2013-01-08 17:58:00,34.2,27.9,29.14,SW,225,4.7,9.4,78,0.00,,,0.02,WUHU21623XXSP,2013-01-08 23:58:00,
2013-01-08 18:03:00,34.2,27.9,29.14,WSW,247,6.7,9.4,78,0.00,,,0.02,WUHU21623XXSP,2013-01-09 00:03:00,
2013-01-08 18:08:00,34.2,27.9,29.14,WSW,247,9.6,9.6,78,0.00,,,0.02,WUHU21623XXSP,2013-01-09 00:08:00,
2013-01-08 18:13:00,34.0,27.8,29.14,WSW,247,7.2,9.6,78,0.00,,,0.02,WUHU21623XXSP,2013-01-09 00:13:00,
2013-01-08 18:18:00,34.0,27.8,29.14,WSW,247,5.8,9.8,78,0.00,,,0.02,WUHU21623XXSP,2013-01-09 00:18:00,
2013-01-08 18:23:00,33.6,27.7,29.14,WSW,247,7.6,9.8,79,0.00,,,0.02,WUHU21623XXSP,2013-01-09 00:23:00,
2013-01-08 18:28:00,33.6,27.7,29.15,WSW,247,7.4,8.3,79,0.00,,,0.02,WUHU21623XXSP,2013-01-09 00:28:00,
2013-01-08 18:33:00,33.6,27.7,29.14,WSW,247,9.2,9.2,79,0.00,,,0.02,WUHU21623XXSP,2013-01-09 00:33:00,
2013-01-08 18:38:00,33.4,27.6,29.14,WSW,247,7.2,9.2,79,0.00,,,0.02,WUHU21623XXSP,2013-01-09 00:38:00,
2013-01-08 18:43:00,33.4,27.6,29.15,WSW,247,7.4,9.2,79,0.00,,,0.02,WUHU21623XXSP,2013-01-09 00:43:00,
2013-01-08 18:48:00,33.3,27.4,29.15,West,270,4.7,8.5,79,0.00,,,0.02,WUHU21623XXSP,2013-01-09 00:48:00,
2013-01-08 18:53:00,33.1,27.2,29.15,WSW,247,8.3,8.5,79,0.00,,,0.02,WUHU21623XXSP,2013-01-09 00:53:00,
2013-01-08 18:58:00,33.1,27.2,29.15,WSW,247,8.1,8.3,79,0.00,,,0.02,WUHU21623XXSP,2013-01-09 00:58:00,
2013-01-08 19:03:00,32.7,26.9,29.14,WSW,247,7.4,8.1,79,0.00,,,0.02,WUHU21623XXSP,2013-01-09 01:03:00,
2013-01-08 19:08:00,32.7,26.9,29.15,West,270,5.4,8.1,79,0.00,,,0.02,WUHU21623XXSP,2013-01-09 01:08:00,
2013-01-08 19:14:00,32.5,26.8,29.16,West,270,5.4,6.9,79,0.00,,,0.02,WUHU21623XXSP,2013-01-09 01:14:00,
2013-01-08 19:19:00,32.2,26.4,29.16,WNW,292,7.6,8.3,79,0.00,,,0.02,WUHU21623XXSP,2013-01-09 01:19:00,
2013-01-08 19:24:00,32.2,26.4,29.16,West,270,4.5,8.9,79,0.00,,,0.02,WUHU21623XXSP,2013-01-09 01:24:00,
2013-01-08 19:29:00,32.0,26.3,29.17,WSW,247,6.3,8.9,79,0.00,,,0.02,WUHU21623XXSP,2013-01-09 01:29:00,
2013-01-08 19:34:00,31.8,26.1,29.17,West,270,4.0,7.4,79,0.00,,,0.02,WUHU21623XXSP,2013-01-09 01:34:00,
2013-01-08 19:39:00,31.6,25.9,29.17,WSW,247,7.8,7.8,79,0.00,,,0.02,WUHU21623XXSP,2013-01-09 01:39:00,
2013-01-08 19:44:00,31.3,25.9,29.17,West,270,3.6,7.8,79,0.00,,,0.02,WUHU21623XXSP,2013-01-09 01:44:00,
2013-01-08 19:49:00,31.3,25.9,29.17,West,270,2.9,4.3,80,0.00,,,0.02,WUHU21623XXSP,2013-01-09 01:49:00,
2013-01-08 19:54:00,31.1,25.7,29.17,WNW,292,7.6,7.6,80,0.00,,,0.02,WUHU21623XXSP,2013-01-09 01:54:00,
2013-01-08 19:59:00,31.1,25.7,29.17,WNW,292,7.8,7.8,80,0.00,,,0.02,WUHU21623XXSP,2013-01-09 01:59:00,
2013-01-08 20:04:00,30.9,25.2,29.17,West,270,4.9,9.2,79,0.00,,,0.02,WUHU21623XXSP,2013-01-09 02:04:00,
2013-01-08 20:09:00,30.7,25.0,29.17,WNW,292,7.6,9.2,79,0.00,,,0.02,WUHU21623XXSP,2013-01-09 02:09:00,
2013-01-08 20:14:00,30.4,24.7,29.18,WSW,247,6.5,7.6,79,0.00,,,0.02,WUHU21623XXSP,2013-01-09 02:14:00,
2013-01-08 20:19:00,30.0,24.3,29.18,West,270,3.8,7.6,79,0.00,,,0.02,WUHU21623XXSP,2013-01-09 02:19:00,
2013-01-08 20:24:00,29.8,24.1,29.18,West,270,3.6,6.7,79,0.00,,,0.02,WUHU21623XXSP,2013-01-09 02:24:00,
2013-01-08 20:29:00,29.5,23.8,29.19,WNW,292,7.4,7.4,79,0.00,,,0.02,WUHU21623XXSP,2013-01-09 02:29:00,
2013-01-08 20:34:00,29.3,23.6,29.19,WNW,292,7.8,7.8,79,0.00,,,0.02,WUHU21623XXSP,2013-01-09 02:34:00,
2013-01-08 20:39:00,29.1,23.4,29.19,West,270,7.2,7.8,79,0.00,,,0.02,WUHU21623XXSP,2013-01-09 02:39:00,
2013-01-08 20:45:00,28.9,23.2,29.20,West,270,4.7,7.2,79,0.00,,,0.02,WUHU21623XXSP,2013-01-09 02:45:00,
2013-01-08 20:50:00,28.8,23.0,29.19,West,270,3.6,6.9,79,0.00,,,0.02,WUHU21623XXSP,2013-01-09 02:50:00,
2013-01-08 20:55:00,28.6,23.2,29.20,West,270,4.9,6.7,80,0.00,,,0.02,WUHU21623XXSP,2013-01-09 02:55:00,
2013-01-08 21:00:00,28.2,22.8,29.20,West,270,4.5,4.9,80,0.00,,,0.02,WUHU21623XXSP,2013-01-09 03:00:00,
2013-01-08 21:05:00,28.6,23.2,29.20,West,270,6.5,6.5,80,0.00,,,0.02,WUHU21623XXSP,2013-01-09 03:05:00,
2013-01-08 21:10:00,28.9,23.5,29.20,West,270,3.4,6.5,80,0.00,,,0.02,WUHU21623XXSP,2013-01-09 03:10:00,
2013-01-08 21:15:00,29.1,24.0,29.20,West,270,6.7,6.7,81,0.00,,,0.02,WUHU21623XXSP,2013-01-09 03:15:00,
2013-01-08 21:20:00,29.5,24.4,29.20,West,270,7.2,7.2,81,0.00,,,0.02,WUHU21623XXSP,2013-01-09 03:20:00,
2013-01-08 21:25:00,29.8,24.7,29.21,West,270,6.9,7.2,81,0.00,,,0.02,WUHU21623XXSP,2013-01-09 03:25:00,
2013-01-08 21:30:00,30.0,24.9,29.21,WNW,292,8.3,9.4,81,0.00,,,0.02,WUHU21623XXSP,2013-01-09 03:30:00,
2013-01-08 21:35:00,30.0,24.9,29.22,WNW,292,7.4,9.4,81,0.00,,,0.02,WUHU21623XXSP,2013-01-09 03:35:00,
2013-01-08 21:40:00,30.2,25.1,29.22,WNW,292,6.9,8.3,81,0.00,,,0.02,WUHU21623XXSP,2013-01-09 03:40:00,
2013-01-08 21:45:00,30.4,25.1,29.22,West,270,6.3,6.9,81,0.00,,,0.02,WUHU21623XXSP,2013-01-09 03:45:00,
2013-01-08 21:50:00,30.6,25.4,29.22,WNW,292,11.0,11.0,81,0.00,,,0.02,WUHU21623XXSP,2013-01-09 03:50:00,
2013-01-08 21:55:00,30.6,25.4,29.22,WNW,292,7.2,11.0,81,0.00,,,0.02,WUHU21623XXSP,2013-01-09 03:55:00,
2013-01-08 22:01:00,30.6,25.2,29.22,WNW,292,6.5,11.0,80,0.00,,,0.02,WUHU21623XXSP,2013-01-09 04:01:00,
2013-01-08 22:06:00,30.6,25.2,29.23,WNW,292,5.8,11.0,80,0.00,,,0.02,WUHU21623XXSP,2013-01-09 04:06:00,
2013-01-08 22:11:00,30.4,25.0,29.23,WNW,292,7.8,7.8,80,0.00,,,0.02,WUHU21623XXSP,2013-01-09 04:11:00,
2013-01-08 22:16:00,30.2,24.8,29.24,WNW,292,7.4,9.2,80,0.00,,,0.02,WUHU21623XXSP,2013-01-09 04:16:00,
2013-01-08 22:21:00,30.0,24.6,29.24,WNW,292,6.9,9.4,80,0.00,,,0.02,WUHU21623XXSP,2013-01-09 04:21:00,
2013-01-08 22:26:00,30.0,24.6,29.25,West,270,9.8,9.8,80,0.00,,,0.02,WUHU21623XXSP,2013-01-09 04:26:00,
2013-01-08 22:31:00,29.8,24.4,29.25,WNW,292,8.9,9.8,80,0.00,,,0.02,WUHU21623XXSP,2013-01-09 04:31:00,
2013-01-08 22:36:00,29.8,24.4,29.25,WNW,292,6.5,8.9,80,0.00,,,0.02,WUHU21623XXSP,2013-01-09 04:36:00,
2013-01-08 22:41:00,30.0,24.6,29.25,WNW,292,8.3,8.3,80,0.00,,,0.02,WUHU21623XXSP,2013-01-09 04:41:00,
2013-01-08 22:46:00,30.0,24.6,29.25,WNW,292,6.7,8.3,80,0.00,,,0.02,WUHU21623XXSP,2013-01-09 04:46:00,
2013-01-08 22:51:00,30.0,24.6,29.25,West,270,3.1,6.7,80,0.00,,,0.02,WUHU21623XXSP,2013-01-09 04:51:00,
2013-01-08 22:56:00,30.0,24.6,29.26,West,270,3.8,6.7,80,0.00,,,0.02,WUHU21623XXSP,2013-01-09 04:56:00,
2013-01-08 23:00:00,30.0,24.6,29.26,WNW,292,7.8,7.8,80,0.00,,,0.02,WUHU21623XXSP,2013-01-09 05:00:00,
2013-01-08 23:03:00,30.0,24.6,29.26,WNW,292,8.3,8.3,80,0.00,,,0.02,WUHU21623XXSP,2013-01-09 05:03:00,
2013-01-08 23:08:00,29.8,24.4,29.26,West,270,1.8,8.3,80,0.00,,,0.02,WUHU21623XXSP,2013-01-09 05:08:00,
2013-01-08 23:13:00,30.0,24.6,29.26,WNW,292,6.7,7.4,80,0.00,,,0.02,WUHU21623XXSP,2013-01-09 05:13:00,
2013-01-08 23:18:00,30.0,24.6,29.27,West,270,3.4,6.9,80,0.00,,,0.02,WUHU21623XXSP,2013-01-09 05:18:00,
2013-01-08 23:23:00,29.8,24.4,29.27,West,270,7.4,8.3,80,0.00,,,0.02,WUHU21623XXSP,2013-01-09 05:23:00,
2013-01-08 23:28:00,29.8,24.4,29.28,WNW,292,9.4,9.4,80,0.00,,,0.02,WUHU21623XXSP,2013-01-09 05:28:00,
2013-01-08 23:33:00,29.7,24.3,29.28,WNW,292,6.0,9.4,80,0.00,,,0.02,WUHU21623XXSP,2013-01-09 05:33:00,
2013-01-08 23:38:00,29.5,24.1,29.29,WNW,292,8.5,8.5,80,0.00,,,0.02,WUHU21623XXSP,2013-01-09 05:38:00,
2013-01-08 23:43:00,29.5,24.1,29.28,WNW,292,8.3,8.5,80,0.00,,,0.02,WUHU21623XXSP,2013-01-09 05:43:00,
2013-01-08 23:48:00,29.8,24.4,29.29,WNW,292,9.8,9.8,80,0.00,,,0.02,WUHU21623XXSP,2013-01-09 05:48:00,
2013-01-08 23:53:00,30.0,24.9,29.29,WNW,292,6.7,9.8,81,0.00,,,0.02,WUHU21623XXSP,2013-01-09 05:53:00,
2013-01-08 23:58:00,30.0,24.9,29.29,West,270,2.7,6.7,81,0.00,,,0.02,WUHU21623XXSP,2013-01-09 05:58:00,